Weather History for Lake Charles Regional, LA

Change the Weather History Date:

Saturday, June 1, 2013

  Actual Average Record
Temperature  
Mean Temperature 84 °F 79 °F  
Max Temperature 90 °F 88 °F 101 °F (1911)
Min Temperature 77 °F 70 °F 55 °F (1930)
Degree Days  
Heating Degree Days 0 0  
Month to date heating degree days 0 0  
Since 1 June heating degree days 0 0  
Since 1 July heating degree days 1267 1490  
Cooling Degree Days 19 14  
Month to date cooling degree days 19 14  
Year to date cooling degree days 504 552  
Since 1 June cooling degree days 19 14  
Growing Degree Days 34 (Base 50)    
Moisture  
Dew Point 74 °F    
Average Humidity 75    
Maximum Humidity 91    
Minimum Humidity 59    
Precipitation  
Precipitation 0.00 in 0.20 in 2.68 in (1909)
Month to date precipitation 0.00 0.20  
Year to date precipitation 29.52 21.08  
Snow  
Snow 0.00 in 0.00 in 0.00 in ()
Month to date snowfall 0.0 0.0  
Since 1 June snowfall 0.0 0.0  
Since 1 July snowfall 0.0 0.1  
Snow Depth 0.00 in    
Sea Level Pressure  
Sea Level Pressure 29.92 in    
Wind  
Wind Speed 9 mph (South)    
Max Wind Speed 16 mph    
Max Gust Speed 24 mph    
Visibility 10 miles    
Events      
T = Trace of Precipitation, MM = Missing Value Source: NWS Daily Summary

Daily Weather History Graph

Daily Weather History Graph

Search for Another Location

Airport:

Trip Planner

Search our weather history database for the weather conditions in past years. The results will help you decide how hot, cold, wet, or windy it might be!

Date:

Astronomy

Jun. 01, 2013 Rise Set
Actual Time 6:11 AM CDT 8:09 PM CDT
Civil Twilight 5:44 AM CDT 8:37 PM CDT
Nautical Twilight 5:12 AM CDT 9:09 PM CDT
Astronomical Twilight 4:37 AM CDT 9:44 PM CDT
Moon 1:41 AM CDT (6/1) 2:04 PM CDT (6/1)
Length of Visible Light 14h 52m
Length of Day
13h 57m
Last Quarter, 40% of the Moon is Illuminated
Jun 1
Last Quarter
Jun 8
New
Jun 16
First Quarter
Jun 23
Full
Jun 29
Last Quarter

Hourly Weather History & Observations

Time (CDT) Temp. Heat Index Dew Point Humidity Pressure Visibility Wind Dir Wind Speed Gust Speed Precip Events Conditions
12:53 AM 80.1 °F 85.4 °F 75.9 °F 87% 29.94 in 10.0 mi SSE 6.9 mph - N/A   Partly Cloudy
1:53 AM 80.1 °F 85.4 °F 75.9 °F 87% 29.94 in 10.0 mi SSE 10.4 mph - N/A   Scattered Clouds
2:53 AM 79.0 °F - 75.9 °F 90% 29.92 in 10.0 mi SSE 8.1 mph - N/A   Scattered Clouds
3:53 AM 79.0 °F - 75.9 °F 90% 29.91 in 10.0 mi South 8.1 mph - N/A   Scattered Clouds
4:53 AM 79.0 °F - 75.9 °F 90% 29.90 in 10.0 mi SSE 9.2 mph - N/A   Mostly Cloudy
5:13 AM 80.6 °F 86.2 °F 75.2 °F 84% 29.88 in 10.0 mi SSE 10.4 mph 16.1 mph N/A   Mostly Cloudy
5:21 AM 78.8 °F - 75.2 °F 89% 29.88 in 10.0 mi South 8.1 mph - N/A   Mostly Cloudy
5:47 AM 80.6 °F 86.2 °F 75.2 °F 84% 29.88 in 10.0 mi South 9.2 mph - N/A   Mostly Cloudy
5:53 AM 79.0 °F - 75.0 °F 88% 29.91 in 10.0 mi South 9.2 mph - N/A   Mostly Cloudy
6:16 AM 78.8 °F - 75.2 °F 89% 29.88 in 10.0 mi South 6.9 mph - N/A   Mostly Cloudy
6:35 AM 80.6 °F 86.2 °F 75.2 °F 84% 29.88 in 10.0 mi South 6.9 mph - N/A   Mostly Cloudy
6:53 AM 80.1 °F 85.1 °F 75.0 °F 85% 29.91 in 10.0 mi South 6.9 mph - N/A   Mostly Cloudy
7:10 AM 80.6 °F 86.2 °F 75.2 °F 84% 29.89 in 10.0 mi South 8.1 mph - N/A   Mostly Cloudy
7:30 AM 80.6 °F 86.2 °F 75.2 °F 84% 29.89 in 10.0 mi South 9.2 mph 16.1 mph N/A   Mostly Cloudy
7:53 AM 82.0 °F 88.6 °F 75.0 °F 79% 29.92 in 10.0 mi South 10.4 mph - N/A   Mostly Cloudy
8:29 AM 82.4 °F 89.5 °F 75.2 °F 79% 29.91 in 10.0 mi South 11.5 mph 19.6 mph N/A   Mostly Cloudy
8:53 AM 82.9 °F 89.4 °F 73.9 °F 74% 29.93 in 10.0 mi South 13.8 mph 21.9 mph N/A   Overcast
9:04 AM 82.4 °F 88.2 °F 73.4 °F 74% 29.91 in 10.0 mi SSW 12.7 mph 20.7 mph N/A   Mostly Cloudy
9:53 AM 82.9 °F 88.8 °F 73.0 °F 72% 29.94 in 10.0 mi South 11.5 mph 21.9 mph N/A   Mostly Cloudy
10:23 AM 84.2 °F 90.9 °F 73.4 °F 70% 29.92 in 10.0 mi SSW 12.7 mph 18.4 mph N/A   Mostly Cloudy
10:53 AM 84.9 °F 92.1 °F 73.9 °F 69% 29.95 in 10.0 mi SW 12.7 mph 19.6 mph N/A   Mostly Cloudy
11:14 AM 84.2 °F 90.9 °F 73.4 °F 70% 29.92 in 10.0 mi SSW 11.5 mph 18.4 mph N/A   Scattered Clouds
11:53 AM 87.1 °F 95.4 °F 73.9 °F 65% 29.96 in 10.0 mi SSW 11.5 mph 19.6 mph N/A   Scattered Clouds
12:53 PM 89.1 °F 97.0 °F 73.0 °F 59% 29.96 in 10.0 mi SSW 9.2 mph - N/A   Partly Cloudy
1:53 PM 89.1 °F 98.0 °F 73.9 °F 61% 29.96 in 10.0 mi SSW 9.2 mph - N/A   Partly Cloudy
2:53 PM 88.0 °F 96.5 °F 73.9 °F 63% 29.95 in 10.0 mi SSW 9.2 mph 16.1 mph N/A   Mostly Cloudy
3:53 PM 87.1 °F 94.5 °F 73.0 °F 63% 29.94 in 10.0 mi South 10.4 mph 16.1 mph N/A   Overcast
4:53 PM 87.1 °F 93.6 °F 72.0 °F 61% 29.92 in 10.0 mi SSW 12.7 mph 17.3 mph N/A   Partly Cloudy
5:53 PM 86.0 °F 93.8 °F 73.9 °F 67% 29.91 in 10.0 mi South 11.5 mph 18.4 mph N/A   Scattered Clouds
6:53 PM 84.0 °F 91.2 °F 73.9 °F 72% 29.91 in 10.0 mi South 9.2 mph - N/A   Clear
7:53 PM 82.0 °F 87.9 °F 73.9 °F 76% 29.90 in 10.0 mi South 9.2 mph - N/A   Clear
8:53 PM 80.1 °F 84.5 °F 73.9 °F 81% 29.90 in 10.0 mi South 6.9 mph - N/A   Clear
9:53 PM 79.0 °F - 75.0 °F 88% 29.92 in 10.0 mi South 4.6 mph - N/A   Clear
10:53 PM 79.0 °F - 75.0 °F 88% 29.94 in 10.0 mi Calm Calm - N/A   Clear
11:53 PM 77.0 °F - 73.9 °F 90% 29.94 in 10.0 mi South 4.6 mph - N/A   Clear